Location: Newark
(30.4994°N, 96.8283°W)
Time: 13:53:21
(UTC+00:00)

Envisat - Pass Details

Date: 26 November 2019
Orbit: 764 x 766 km, 98.1° (Epoch: 13 December)

Event Time Altitude Azimuth Distance (km) Brightness Sun altitude
Rises 01:09:01 0° 186° (S) 3,216 6.5 -21.8°
Reaches altitude 10° 01:11:28 10° 195° (SSW) 2,293 5.8 -22.3°
Maximum altitude 01:16:07 37° 262° (W) 1,181 4.5 -23.3°
Drops below altitude 10° 01:20:48 10° 329° (NNW) 2,304 5.7 -24.2°
Sets 01:23:17 0° 337° (NNW) 3,233 6.4 -24.8°
